Zurück zum Katalog

STARLINK-5246

AktivKommunikationVLEO
NORAD 54198·PAYLOAD·🇺🇸 United States

Gestartet Oct 28, 2022 von Vandenberg Space Force Base

Loading…

Nächste Überflüge (nächste 24 Stunden)

TLE

AktuellSource: CelesTrak SupGP

Epoche: Sep 14, 2026, 22:09 UTC

1 54198C 22141AT  26257.92340278 -.00015479  00000+0 -44275-3 0  2573
2 54198  53.1582 214.0221 0001304 100.2376  50.5669 15.35413923    10

Verfolge STARLINK-5246 in Echtzeit mit AllMySat

Download on the App Store